Location: Marcé
(47.5801°N, 0.3280°W)
Time: 14:32:35
(UTC+01:00)

Transit 2A - Pass Details

Date: 01 December 2021
Orbit: 591 x 967 km, 66.7° (Epoch: 21 January)

Event Time Altitude Azimuth Distance (km) Brightness Sun altitude
Rises 10:01:39 0° 325° (NW) 3,653 8.8 10.9°
Reaches altitude 10° 10:04:14 10° 327° (NNW) 2,714 8.3 11.2°
Maximum altitude 10:10:40 77° 54° (NE) 988 6.8 11.8°
Drops below altitude 10° 10:16:53 10° 141° (SE) 2,621 12.2 12.5°
Sets 10:19:20 0° 142° (SE) 3,521 11.5 12.7°
